This demonstration page uses our WeatherBlox Daily Observations layout. Learn more.

Left ArrowRight Arrow

30.21309, -93.2044

Hourly Observations for April 19, 2022

Temp ( °F °C ) Dew Point ( °F °C ) Humidity (%) Winds ( mph kmh ) Pressure ( in mb ) Visibility ( mi km ) Precip ( " mm )
12:15 am 00:15 Clear 59 14.8 50 10.1 74 74 ENE 9 15 30.21 1023 10 16 0.00 0.00
12:35 am 00:35 Clear 58 14.6 50 10 74 74 ENE 10 17 30.21 1023 10 16 0.00 0.00
12:55 am 00:55 Clear 58 14.4 50 9.8 74 74 ENE 12 19 30.21 1023 10 16 0.00 0.00
1:15 am 01:15 Clear 57 14.1 49 9.7 75 75 ENE 9 15 30.21 1023 10 16 0.00 0.00
1:35 am 01:35 Clear 57 13.8 49 9.6 76 76 ENE 7 11 30.21 1023 10 16 0.00 0.00
1:55 am 01:55 Clear 56 13.4 49 9.6 78 78 NE 8 13 30.21 1023 10 16 0.00 0.00
2:15 am 02:15 Clear 56 13.5 49 9.5 77 77 NE 7 11 30.22 1023 10 16 0.00 0.00
2:35 am 02:35 Clear 56 13.1 49 9.5 79 79 NE 8 13 30.21 1023 10 16 0.00 0.00
2:55 am 02:55 Clear 55 12.9 49 9.4 79 79 NE 7 11 30.21 1023 10 16 0.00 0.00
3:15 am 03:15 Clear 55 12.8 49 9.4 80 80 NE 7 11 30.21 1023 10 16 0.00 0.00
3:35 am 03:35 Clear 55 12.5 49 9.4 82 82 NE 9 15 30.21 1023 10 16 0.00 0.00
3:55 am 03:55 Clear 54 12.2 49 9.3 83 83 ENE 8 13 30.21 1023 10 16 0.00 0.00
4:15 am 04:15 Clear 54 12 49 9.3 84 84 ENE 6 9 30.20 1023 10 16 0.00 0.00
4:35 am 04:35 Clear 53 11.8 49 9.2 84 84 ENE 6 9 30.21 1023 10 16 0.00 0.00
4:55 am 04:55 Clear 53 11.4 48 9 85 85 E 6 9 30.21 1023 10 16 0.00 0.00
5:15 am 05:15 Clear 52 11.1 48 9 87 87 ENE 5 7 30.21 1023 10 16 0.00 0.00
5:35 am 05:35 Clear 52 11.1 48 8.9 86 86 ENE 5 7 30.22 1023 10 16 0.00 0.00
6:00 am 06:00 Mostly Clear 52 11 48 9 88 88 ENE 6 9 30.22 1023 10 16 0.00 0.00
6:47 am 06:47 Mostly Sunny 54 12 48 9 82 82 ENE 6 9 30.23 1024 10 16 0.00 0.00
7:53 am 07:53 Partly Cloudy 55 13 48 9 77 77 ENE 7 11 30.24 1024 10 16 0.00 0.00
8:45 am 08:45 Mostly Sunny 57 14 48 9 72 72 E 10 17 30.34 1027 10 16 0.00 0.00
9:47 am 09:47 Mostly Sunny 63 17 45 7 52 52 E 17 28 30.26 1025 10 16 0.00 0.00
10:47 am 10:47 Mostly Cloudy 66 19 43 6 43 43 ESE 17 28 30.27 1025 10 16 0.00 0.00
11:49 am 11:49 Partly Cloudy 66 19 41 5 40 40 ESE 17 28 30.26 1025 10 16 0.00 0.00
12:55 pm 12:55 Mostly Sunny 70 21 45 7 40 40 ESE 9 15 30.24 1024 10 16 0.00 0.00
1:47 pm 13:47 Mostly Sunny 72 22 45 7 38 38 SE 8 13 30.25 1024 10 16 0.00 0.00
2:50 pm 14:50 Mostly Sunny 73 23 46 8 38 38 ESE 13 20 30.20 1023 10 16 0.00 0.00
3:45 pm 15:45 Mostly Sunny 73 23 48 9 41 41 SE 9 15 30.17 1022 10 16 0.00 0.00
5:55 pm 17:55 Mostly Sunny 73 23 46 8 38 38 SE 12 19 30.13 1020 10 16 0.00 0.00
6:45 pm 18:45 Mostly Sunny 68 20 48 9 49 49 SSE 12 19 30.11 1020 10 16 0.00 0.00
7:45 pm 19:45 Mostly Clear 64 18 48 9 56 56 SE 8 13 30.10 1019 10 16 0.00 0.00
8:52 pm 20:52 Mostly Clear 63 17 48 9 59 59 SE 8 13 30.11 1020 10 16 0.00 0.00
9:55 pm 21:55 Mostly Clear 59 15 50 10 72 72 SE 7 11 30.12 1020 10 16 0.00 0.00
10:15 pm 22:15 Clear 58 14.6 50 10.1 75 75 SE 5 7 30.12 1020 10 16 0.00 0.00
10:35 pm 22:35 Clear 59 14.9 50 10.2 74 74 S 6 9 30.12 1020 10 16 0.00 0.00
10:55 pm 22:55 Clear 56 13.6 50 9.9 79 79 S 5 7 30.11 1020 10 16 0.00 0.00
11:15 pm 23:15 Clear 55 13 51 10.4 84 84 SSE 5 7 30.10 1019 10 16 0.00 0.00
11:35 pm 23:35 Clear 56 13.4 51 10.4 82 82 SE 6 9 30.10 1019 10 16 0.00 0.00
11:55 pm 23:55 Clear 58 14.2 52 10.9 81 81 SE 6 9 30.10 1019 10 16 0.00 0.00

Powered by AerisWeather